Погода в Балашове

Погода в Балашове : погода сейчас, прогноз погоды и архив. Всё, что Вы хотите узнать о погоде в Балашове!

Хотите узнать прогноз погоды в Балашове? Тогда Вам сюда: Погода в Балашове

Поиск расширенной информации на нашем сайте:

Полезная информация:

Другие новости

Новости СМИ2

Главная страница сайта

Новости сайта

03.07.2017

Напоминаем, что на нашем специализированном сайте Метеоцентр.Азия вы можете получить высокодетализированные автоматические прогнозы погоды по пунктам России, СНГ и мира в авиационном формате (включающие направление и скорость ветра, видимость, явления погоды, количество и форму облачности, нижнюю и верхнюю границу облачности).

Рекомендуем:

Погода в Балашове - сегодня

Время (UTC), дата Ветер
(°,м/с) 
Видим.   Явления Облачность Т
(°С)
Тd
(°С)
f(%) Тe
(°С)
Pmin
(гПа)
dP
(гПа)
Po
(мм)
O2
(г/м3)
Тmin Tmax R s Состояние
почвы
21 18.05.19 330 (СЗ) 20000 м    ясно 
+12.8 +5.8 62 +14  1013.9  -0.2  746  286           
00 19.05.19 020 (С) 20000 м    ясно 
+8.8 +6.6 86 +9  1014.3  0.1  746  290           
03 19.05.19 020 (С) 20000 м    ясно 
+11.7 +6.3 69 +12  1014.6  0.4  747  287  +7.8        сухая 
06 19.05.19 020 (С) 20000 м    ясно 
+19.3 +3.6 35 +20  1014.7  0.6  747  281           
09 19.05.19 330 (СЗ) 5{11}  20000 м    3/3 1000 м 
[Cu hum]
+21.4 +3.7 31 +21  1013.6  -1  746  278           
12 19.05.19 330 (СЗ) 6-11{12}  20000 м    4/4 1000 м 
[Cu med, cong]
+22.7 +3.8 29 +23  1012.5  -1  746  277           
15 19.05.19 340 (С) 6-10{13}  20000 м    ясно 
+21.5 +2 28 +22  1012.5  0.1  746  278    +22.9       
18 19.05.19 020 (С) 3{10}  20000 м    ясно 
+14.9 +2.2 42 +15  1015.3  2.3  747  285           
21 19.05.19 тихо ()   20000 м    ясно 
+10 +2.1 58 +10  1017.4  1.8  749  291           
00 20.05.19 тихо ()   20000 м    ясно 
+6 +4.5 90 +6  1018.8  750  295           
03 20.05.19 050 (СВ) 20000 м    ясно 
+9.2 +2.1 61 +9  1019.9  1.3  751  292  +4.5        сухая 
06 20.05.19 040 (СВ) 20000 м    ясно 
+15.6 +2.3 41 +17  1020.3  0.8  751  286           
09 20.05.19 360 (С) 20000 м    ясно 
+18.4 +2.2 34 +19  1020.2  0.1  751  283           
12 20.05.19 310 (СЗ) 20000 м    8/0 верхняя 
[Ci fib]
+19.1 -0.2 27 +20  1019.3  -0.9  751  283           
15 20.05.19 350 (С) 3{10}  20000 м    10/0 верхняя 
[Ci]
+18.2 +0.9 31 +19  1019.1  -0.3  750  283    +20.1       
18 20.05.19 060 (СВ) 20000 м    6/0 верхняя 
[Ci fib]
+10.3 +2.5 58 +11  1020.7  1.1  751  291           
21 20.05.19 тихо ()   20000 м    3/0 верхняя 
[Ci fib]
+8 +3.3 72 +8  1021.6  0.7  752  294           
00 21.05.19 120 (ЮВ) 20000 м    3/0 верхняя 
[Ci fib]
+6.5 +1.5 70 +6  1022  0.4  752  296           
03 21.05.19 170 (Ю) 20000 м    5/0 верхняя 
[Ci fib]
+9.7 +4.3 69 +11  1022.5  0.4  752  292  +5.1        сухая 
06 21.05.19 240 (ЮЗ) 20000 м    3/0 верхняя 
[Ci fib]
+18.2 +2.2 34 +20  1022.1  0.1  753  284           
09 21.05.19 200 (Ю) 20000 м    5/0 верхняя 
[Ci fib]
+20.5 +1.7 29 +21  1021.6  -0.4  752  282           
12 21.05.19 170 (Ю) 20000 м    8/0 верхняя 
[Ci fib]
+22.7 +1.5 25 +23  1020.2  -1.2  751  279           
15 21.05.19 240 (ЮЗ) 20000 м    10/0 верхняя 
[Ci fib]
+21.3 +3 30 +21  1019.1  -1.2  750  280    +23       
18 21.05.19 190 (Ю) 20000 м    3/0 верхняя 
[Ci fib]
+14 +5.3 56 +15  1019.3  -0.2  750  287           
21 21.05.19 190 (Ю) 20000 м    ясно 
+10.4 +3.5 62 +12  1019.5  750  291           
Время (UTC), дата Ветер
(°,м/с) 
Видим.   Явления Облачность Т
(°С)
Тd
(°С)
f(%) Тe
(°С)
Pmin
(гПа)
dP
(гПа)
Po
(мм)
O2
(г/м3)
Тmin Tmax R s Состояние
почвы

Для получения пояснительной информации подведите курсор к названию столбца.

ПОГОДА в Балашове - архив

Всё, что Вы хотите узнать о погоде в Балашове - удобно и подробно!

Выберите нужную дату (начиная с 1 января 2018* года) и нажмите кнопку "Найти".
Будут отображены архивные сводки погоды по пункту Балашов, начиная с указанной даты.


Отображать данные в формате CSV (для использования в таблицах Excel)


Внимание! Наш архив погоды предназначен исключительно для личного некоммерческого использования в познавательных целях. Если Вам необходимы официальные справки о состоянии погоды (для производственных, юридических, коммерческих и т.п. целей), обращайтесь в органы Росгидромета.

*Примечание: данная дата относится к архиву по метеостанциям СССР (Россия, СНГ, Балтия).
Архив по метеостанциям Зарубежной Европы и Азии (кроме Китая) хранится 10 дней, по другим регионам земного шара (Китай, Африка, Америка, Австралия, Океания) - 1 день.

Балашов - район местоположения метеостанции


Название, широта, долгота, высота метеостанции:
Балашов 51.6°ш. 43.2°д. 159 м над ур. моря [Российская Федерация]

Дополнительная информация

В oтличие oт бoльшинства пoгoдных сайтoв мы публикуем пoдрoбную метеoинфoрмацию в детальнoм прoфессиoнальнoм фoрмате.

Характеристики температуры и влажнoсти вoздуха измеряются на высoте 2 м в тени вдали oт зданий и деревьев.
Скoрoсть ветра измеряется на высoте 10 м (на урoвне рoста челoвека скoрoсть ветра ниже в 1.5-2 раза). Если метеoстанция нахoдится в гoрoде или в лесу, тo скoрoсть ветра занижена на 2-4 м/с пo сравнению с oткрытым местoм. Скoрoсть ветра над акватoриями крупных рек и oзёр, а также на вершинах хoлмoв на 2-5 м/с выше, чем в oбычных услoвиях.
Атмoсфернoе давление в разных тoчках местнoсти мoжет значительнo oтличаться oт давления на метеoстанции, в зависимoсти oт услoвий рельефа (при пoдъёме на 10 м давление пoнижается примернo на 1 мм рт.ст.).